Location: El Diablo
(32.4667°N, 116.4500°W)
Time: 01:41:09
(UTC+00:00)

Cosmos 1741 Rocket - Pass Details

Date: 10 September 2024
Orbit: 759 x 779 km, 74.0° (Epoch: 06 October)

Event Time Altitude Azimuth Distance (km) Brightness Sun altitude
Rises 12:15:24 0° 188° (S) 3,227 7.0 -15.6°
Reaches altitude 10° 12:17:47 10° 185° (S) 2,301 6.3 -15.1°
Maximum altitude 12:22:57 66° 104° (ESE) 834 4.4 -14.1°
Drops below altitude 10° 12:28:07 10° 23° (NNE) 2,301 7.0 -13.0°
Sets 12:30:30 0° 21° (NNE) 3,228 7.7 -12.5°
